GW6155 Weather Reports


time (UTC)temp
C
wind
direction
speed
KPH
gust
KPH
rain 1hr
cm
rain 24hr
cm
rain mn
cm
humidity
%
barometer
mb
20260507081738 12 311 3.2 4.8 0.71 0.33 0.33 93 1006.9
20260507081234 12 0 0.0 6.4 0.30 0.23 0.23 93 1006.5
20260507080731 12 283 3.2 4.8 0.48 0.20 0.20 93 1006.5
20260507080227 12 289 3.2 6.4 0.66 0.18 0.18 92 1006.7
20260507075722 12 0 8.0 9.7 0.79 0.13 0.13 92 1006.7
20260507075219 12 270 4.8 14.5 0.48 0.08 0.08 92 1006.5
20260507074715 12 8 8.0 12.9 0.00 0.00 0.00 93 1006.2
20260507074214 12 309 3.2 4.8 0.00 0.00 0.00 93 1005.5
20260507073710 12 352 0.0 3.2 0.00 0.00 0.00 93 1005.7
20260507073206 12 75 3.2 9.7 0.00 0.00 0.00 93 1005.7
20260507072704 13 82 0.0 3.2 0.00 0.00 0.00 93 1005.4
20260507072201 13 261 0.0 1.6 0.00 0.00 0.00 93 1005.8
20260507071659 13 270 0.0 3.2 0.00 0.00 0.00 93 1005.7
20260507071155 13 286 0.0 1.6 0.00 0.00 0.00 93 1005.9
20260507070652 13 251 0.0 3.2 0.00 0.00 0.00 93 1005.9
20260507070149 13 286 0.0 0.0 0.00 0.00 0.00 93 1005.6
20260507065645 13 209 0.0 1.6 0.00 0.00 0.00 93 1005.7
20260507065142 13 8 0.0 3.2 0.00 0.00 0.00 93 1005.6
20260507064640 13 277 0.0 4.8 0.00 0.00 0.00 93 1005.6
20260507064138 13 215 1.6 4.8 0.00 0.00 0.00 93 1005.3
20260507063636 13 285 0.0 4.8 0.00 0.00 0.00 93 1005.4
20260507063132 13 240 1.6 12.9 0.00 0.00 0.00 93 1005.4
20260507062629 13 275 3.2 6.4 0.00 0.00 0.00 93 1005.7
20260507062127 13 237 4.8 9.7 0.00 0.00 0.00 93 1005.9
20260507061624 13 270 1.6 6.4 0.00 0.00 0.00 93 1005.9
20260507061122 13 240 0.0 8.0 0.00 0.00 0.00 93 1005.8
20260507060620 13 239 4.8 4.8 0.00 0.00 0.00 93 1005.9
20260507060116 13 195 6.4 11.3 0.00 0.00 0.00 93 1006.3
20260507055612 13 192 3.2 8.0 0.00 0.00 0.00 93 1006.1
20260507055108 13 195 3.2 9.7 0.00 0.00 0.00 93 1006.1
20260507054604 13 277 1.6 8.0 0.00 0.00 0.00 93 1006.1
20260507054101 13 213 3.2 11.3 0.00 0.00 0.00 93 1006.2
20260507053559 13 276 6.4 9.7 0.00 0.00 0.00 93 1006.3
20260507053058 13 215 4.8 16.1 0.00 0.00 0.00 93 1006.1
20260507052555 13 254 3.2 9.7 0.00 0.00 0.00 93 1006.0
20260507052051 13 341 6.4 11.3 0.00 0.00 0.00 93 1006.1
20260507051549 13 264 3.2 8.0 0.00 0.00 0.00 93 1006.4
20260507051046 13 205 9.7 9.7 0.00 0.00 0.00 93 1006.5
20260507050542 13 201 4.8 9.7 0.00 0.00 0.00 93 1006.5
20260507050039 13 239 3.2 6.4 0.00 0.00 0.00 93 1006.3
20260507045535 13 201 4.8 9.7 0.00 0.00 0.00 93 1006.4
20260507045033 13 209 1.6 12.9 0.00 0.00 0.00 93 1006.2
20260507044529 13 251 8.0 8.0 0.00 0.00 0.00 93 1006.2
20260507044026 13 248 3.2 8.0 0.00 0.00 0.00 93 1006.2
20260507043522 13 270 1.6 9.7 0.00 0.00 0.00 93 1006.3
20260507043020 13 249 4.8 14.5 0.00 0.00 0.00 93 1006.0
20260507042515 13 213 0.0 12.9 0.00 0.00 0.00 93 1006.2
20260507042011 13 216 8.0 17.7 0.00 0.00 0.00 93 1006.1
20260507041508 13 206 6.4 6.4 0.00 0.00 0.00 93 1006.2
20260507041005 13 230 3.2 14.5 0.00 0.00 0.00 93 1006.1
20260507040501 13 243 4.8 20.9 0.00 0.00 0.00 93 1006.1
20260507035956 13 235 4.8 12.9 0.00 0.25 0.25 93 1006.4
20260507035454 13 279 6.4 16.1 0.00 0.25 0.25 93 1006.4
20260507034950 13 270 0.0 11.3 0.00 0.25 0.25 93 1006.6
20260507034447 13 195 6.4 14.5 0.00 0.25 0.25 93 1006.7
20260507033945 13 238 14.5 14.5 0.00 0.25 0.25 93 1006.4
20260507033443 13 239 3.2 24.1 0.00 0.25 0.25 93 1006.4
20260507032940 13 234 9.7 14.5 0.00 0.25 0.25 93 1006.1
20260507032437 13 202 8.0 22.5 0.00 0.25 0.25 93 1006.4
20260507031932 13 225 6.4 19.3 0.00 0.25 0.25 93 1006.0
20260507031429 13 227 9.7 14.5 0.00 0.25 0.25 93 1006.0
20260507030926 13 230 3.2 11.3 0.00 0.25 0.25 93 1005.9
20260507030423 13 252 3.2 14.5 0.00 0.25 0.25 93 1006.2
20260507025920 13 253 8.0 16.1 0.00 0.25 0.25 94 1005.9
20260507025418 13 214 9.7 16.1 0.00 0.25 0.25 94 1005.9
20260507024915 13 270 4.8 14.5 0.00 0.25 0.25 94 1005.6
20260507024413 13 230 11.3 25.7 0.00 0.25 0.25 94 1005.8
20260507023908 13 180 1.6 20.9 0.00 0.25 0.25 94 1005.9
20260507023405 13 237 8.0 17.7 0.00 0.25 0.25 94 1006.0
20260507022903 13 171 4.8 9.7 0.00 0.25 0.25 94 1005.9
20260507022359 13 202 6.4 14.5 0.00 0.25 0.25 94 1005.8
20260507021855 13 254 3.2 9.7 0.00 0.25 0.25 94 1006.0
20260507021350 13 270 4.8 22.5 0.00 0.25 0.25 94 1006.2
20260507020849 13 270 0.0 11.3 0.00 0.25 0.25 94 1006.1
20260507020345 13 226 6.4 20.9 0.00 0.25 0.25 94 1006.4
20260507015842 13 206 6.4 9.7 0.00 0.25 0.25 94 1006.5
20260507015340 13 210 3.2 16.1 0.00 0.25 0.25 94 1006.3
20260507014837 13 243 4.8 14.5 0.00 0.25 0.25 94 1006.7
20260507014333 13 256 4.8 9.7 0.00 0.25 0.25 94 1006.3
20260507013829 13 235 3.2 9.7 0.00 0.25 0.25 94 1006.5
20260507013326 13 219 0.0 8.0 0.00 0.25 0.25 94 1006.6
20260507012824 13 228 8.0 17.7 0.00 0.25 0.25 94 1006.9
20260507012320 13 210 4.8 14.5 0.00 0.25 0.25 94 1006.4
20260507011817 13 243 3.2 14.5 0.00 0.25 0.25 94 1006.6
20260507011314 13 197 8.0 24.1 0.00 0.25 0.25 94 1006.7
20260507010814 13 202 8.0 14.5 0.00 0.25 0.25 94 1006.4
20260507010309 13 236 3.2 11.3 0.00 0.25 0.25 94 1006.6
20260507005807 13 254 1.6 12.9 0.00 0.25 0.25 94 1006.5
20260507005305 13 194 6.4 20.9 0.00 0.25 0.25 94 1006.6
20260507004800 13 204 8.0 11.3 0.00 0.25 0.25 94 1006.7
20260507004258 13 241 6.4 20.9 0.00 0.25 0.25 94 1006.7
20260507003754 13 237 16.1 22.5 0.00 0.25 0.25 94 1006.6
20260507003249 13 160 0.0 22.5 0.05 0.25 0.25 94 1007.0
20260507002745 13 206 6.4 22.5 0.05 0.25 0.25 94 1006.6
20260507002241 13 233 14.5 20.9 0.18 0.25 0.25 94 1006.5
20260507001738 13 231 4.8 17.7 0.30 0.25 0.25 94 1006.4
20260507001236 14 202 9.7 22.5 0.13 0.23 0.23 94 1006.6
20260507000732 13 195 3.2 16.1 0.00 0.20 0.20 94 1006.7
20260507000228 13 195 6.4 6.4 0.00 0.20 0.20 94 1006.6
20260506235725 13 212 4.8 12.9 0.05 0.20 0.20 93 1006.6
20260506235220 13 180 1.6 9.7 0.13 0.20 0.20 93 1006.7
20260506234717 13 219 3.2 9.7 0.05 0.18 0.18 93 1006.6
20260506234215 13 183 4.8 8.0 0.00 0.18 0.18 93 1006.9
20260506233712 13 227 4.8 16.1 0.05 0.18 0.18 93 1007.0
20260506233208 14 219 3.2 16.1 0.13 0.18 0.18 93 1006.6
20260506232705 14 285 0.0 14.5 0.30 0.18 0.18 93 1007.0
20260506232200 14 290 3.2 17.7 0.30 0.15 0.15 92 1006.8
20260506231658 14 274 4.8 6.4 0.13 0.13 0.13 92 1006.8
20260506231156 14 213 6.4 11.3 0.05 0.10 0.10 92 1006.6
20260506230652 14 320 4.8 8.0 0.00 0.10 0.10 92 1006.8
20260506230149 14 184 9.7 14.5 0.00 0.10 0.10 91 1006.7
20260506225646 15 210 8.0 17.7 0.05 0.10 0.10 91 1006.9
20260506225143 15 180 4.8 11.3 0.05 0.10 0.10 91 1006.8
20260506224639 15 180 0.0 14.5 0.05 0.10 0.10 91 1007.1
20260506224136 15 177 4.8 9.7 0.05 0.10 0.10 90 1006.9
20260506223632 15 159 6.4 14.5 0.00 0.08 0.08 90 1007.3
20260506223128 15 180 6.4 16.1 0.05 0.08 0.08 90 1007.2
20260506222625 15 180 4.8 17.7 0.00 0.08 0.08 90 1007.1
20260506222121 15 286 0.0 9.7 0.00 0.08 0.08 90 1007.2
20260506221619 15 199 3.2 12.9 0.00 0.08 0.08 89 1007.3
20260506221117 15 227 8.0 16.1 0.00 0.08 0.08 89 1007.1
20260506220613 15 244 6.4 9.7 0.00 0.08 0.08 89 1007.4
20260506220109 15 223 8.0 17.7 0.00 0.08 0.08 89 1007.3
20260506215606 16 132 6.4 14.5 0.00 0.08 0.08 89 1007.4
20260506215101 16 183 4.8 11.3 0.00 0.08 0.08 89 1007.2
20260506214558 16 205 4.8 19.3 0.13 0.08 0.08 88 1007.2
20260506214055 16 222 9.7 14.5 0.13 0.08 0.08 88 1007.2
20260506213553 16 207 4.8 16.1 0.00 0.05 0.05 87 1007.2
20260506213050 16 215 14.5 17.7 0.00 0.05 0.05 86 1007.4
20260506212547 16 212 4.8 17.7 0.00 0.05 0.05 86 1007.4
20260506212042 16 218 4.8 12.9 0.00 0.05 0.05 85 1007.6
20260506211538 16 195 6.4 20.9 0.00 0.05 0.05 85 1007.5
20260506211036 16 204 8.0 12.9 0.00 0.05 0.05 86 1007.7
20260506210532 16 229 9.7 19.3 0.00 0.05 0.05 86 1007.6
20260506210029 16 296 4.8 12.9 0.00 0.05 0.05 86 1007.7
20260506205526 16 210 8.0 22.5 0.00 0.05 0.05 86 1007.6
20260506205021 16 190 0.0 17.7 0.00 0.05 0.05 87 1007.5
20260506204519 16 243 16.1 16.1 0.00 0.05 0.05 87 1007.8
20260506204016 15 270 4.8 25.7 0.00 0.05 0.05 88 1007.7
20260506203514 15 230 11.3 25.7 0.00 0.05 0.05 89 1007.7
20260506203010 15 210 6.4 16.1 0.00 0.05 0.05 89 1007.8
20260506202508 15 216 9.7 19.3 0.05 0.05 0.05 89 1008.0
20260506202003 15 174 4.8 11.3 0.18 0.05 0.05 89 1007.9
20260506201502 15 200 8.0 12.9 0.18 0.05 0.05 88 1008.1
20260506200958 16 226 17.7 20.9 0.13 0.03 0.03 88 1008.0
20260506200454 16 231 6.4 30.6 0.05 0.00 0.00 87 1008.1
20260506195950 16 270 3.2 19.3 0.00 0.00 0.00 84 1008.1
20260506195448 17 227 11.3 11.3 0.00 0.00 0.00 80 1007.9
20260506194944 17 216 16.1 24.1 0.00 0.00 0.00 79 1008.2
20260506194442 17 266 12.9 19.3 0.00 0.00 0.00 78 1008.3
20260506193938 17 167 6.4 38.6 0.00 0.00 0.00 78 1008.2
20260506193436 17 184 9.7 33.8 0.00 0.00 0.00 77 1007.9
20260506192932 17 202 8.0 38.6 0.00 0.00 0.00 78 1008.2
20260506192429 18 180 9.7 35.4 0.00 0.00 0.00 77 1008.1
20260506191926 18 213 14.5 29.0 0.00 0.00 0.00 77 1008.3
20260506191422 18 180 3.2 25.7 0.00 0.00 0.00 77 1008.3
20260506190919 18 252 6.4 25.7 0.00 0.00 0.00 77 1007.9
20260506190416 18 182 6.4 19.3 0.00 0.00 0.00 77 1007.9
20260506185913 18 220 16.1 24.1 0.00 0.00 0.00 76 1008.0
20260506185410 18 228 3.2 27.4 0.00 0.00 0.00 77 1008.1
20260506184907 18 241 14.5 19.3 0.00 0.00 0.00 76 1008.2
20260506184404 18 308 3.2 40.2 0.00 0.00 0.00 76 1008.2
20260506183901 18 279 14.5 17.7 0.00 0.00 0.00 75 1008.3
20260506183356 18 205 17.7 51.5 0.00 0.00 0.00 75 1008.0
20260506182854 18 207 12.9 32.2 0.00 0.00 0.00 74 1008.2
20260506182351 19 188 3.2 16.1 0.00 0.00 0.00 74 1008.1
20260506181848 19 237 17.7 35.4 0.00 0.00 0.00 74 1008.5
20260506181346 19 239 3.2 25.7 0.00 0.00 0.00 73 1008.6
20260506180843 19 171 8.0 53.1 0.00 0.00 0.00 73 1008.6
20260506180339 20 198 3.2 32.2 0.00 0.00 0.00 71 1008.7
20260506175835 20 173 11.3 32.2 0.00 0.00 0.00 71 1008.8
20260506175332 20 206 8.0 38.6 0.00 0.00 0.00 70 1009.2
20260506174829 20 169 19.3 35.4 0.00 0.00 0.00 70 1009.1
20260506174327 20 210 9.7 16.1 0.00 0.00 0.00 69 1009.0
20260506173824 20 245 9.7 22.5 0.00 0.00 0.00 70 1008.8
20260506173321 20 152 4.8 22.5 0.00 0.00 0.00 71 1008.9
20260506172818 20 165 6.4 41.8 0.00 0.00 0.00 71 1009.1
20260506172314 20 194 11.3 35.4 0.00 0.00 0.00 70 1009.0
20260506171812 19 223 20.9 38.6 0.00 0.00 0.00 73 1008.9
20260506171309 19 292 3.2 19.3 0.00 0.00 0.00 73 1009.4
20260506170807 20 182 4.8 29.0 0.00 0.00 0.00 73 1009.2
20260506170302 19 166 9.7 32.2 0.00 0.00 0.00 73 1009.3
20260506165802 20 189 6.4 40.2 0.00 0.00 0.00 72 1009.5
20260506165258 20 248 3.2 14.5 0.00 0.00 0.00 69 1009.3
20260506164755 20 222 14.5 25.7 0.00 0.00 0.00 69 1009.5
20260506164252 20 270 3.2 19.3 0.00 0.00 0.00 69 1009.3
20260506163749 20 274 4.8 38.6 0.00 0.00 0.00 69 1009.3
20260506163243 20 233 20.9 32.2 0.00 0.00 0.00 69 1009.7
20260506162740 20 180 17.7 38.6 0.00 0.00 0.00 69 1009.6
20260506162238 20 265 6.4 32.2 0.00 0.00 0.00 68 1009.8
20260506161735 21 278 6.4 22.5 0.00 0.00 0.00 68 1009.7
20260506161232 21 17 8.0 27.4 0.00 0.00 0.00 68 1009.7
20260506160730 21 206 16.1 24.1 0.00 0.00 0.00 67 1009.9
20260506160226 21 239 12.9 17.7 0.00 0.00 0.00 66 1010.0
20260506155725 22 166 0.0 9.7 0.00 0.00 0.00 67 1010.1
20260506155221 21 259 3.2 20.9 0.00 0.00 0.00 68 1010.1
20260506153323 20 223 19.3 35.4 0.00 0.00 0.00 69 1010.2
20260506152820 20 63 6.4 40.2 0.00 0.00 0.00 69 1010.4
20260506152317 20 242 20.9 41.8 0.00 0.00 0.00 68 1010.5
20260506151816 20 171 8.0 14.5 0.00 0.00 0.00 69 1010.4
20260506151312 20 209 11.3 29.0 0.00 0.00 0.00 68 1010.5
20260506150809 20 237 9.7 12.9 0.00 0.00 0.00 69 1010.4
20260506150306 20 253 12.9 27.4 0.00 0.00 0.00 69 1010.2
20260506145803 20 182 6.4 19.3 0.00 0.00 0.00 68 1010.5
20260506145259 20 183 11.3 30.6 0.00 0.00 0.00 69 1010.2
20260506144757 20 160 6.4 30.6 0.00 0.00 0.00 69 1010.2
20260506144253 21 187 8.0 22.5 0.00 0.00 0.00 67 1010.4
20260506143751 21 181 8.0 16.1 0.00 0.00 0.00 66 1010.2
20260506143248 21 205 6.4 27.4 0.00 0.00 0.00 67 1010.1
20260506142747 20 203 12.9 20.9 0.00 0.00 0.00 67 1010.3
20260506142244 20 237 17.7 30.6 0.00 0.00 0.00 68 1010.1
20260506141742 20 190 9.7 22.5 0.00 0.00 0.00 67 1010.3
20260506141240 21 219 17.7 38.6 0.00 0.00 0.00 67 1010.0
20260506140738 21 159 16.1 17.7 0.00 0.00 0.00 67 1010.2
20260506140234 20 221 6.4 30.6 0.00 0.00 0.00 69 1010.5
20260506135731 20 180 4.8 20.9 0.00 0.00 0.00 70 1010.7
20260506135228 20 228 6.4 16.1 0.00 0.00 0.00 71 1010.7
20260506134725 20 184 6.4 20.9 0.00 0.00 0.00 72 1010.8
20260506134221 20 318 4.8 11.3 0.00 0.00 0.00 73 1010.9
20260506133718 20 203 1.6 14.5 0.00 0.00 0.00 74 1010.9
20260506133214 19 232 6.4 14.5 0.00 0.00 0.00 74 1011.0
20260506132712 18 231 11.3 20.9 0.00 0.00 0.00 74 1010.9
20260506132209 18 244 22.5 32.2 0.00 0.00 0.00 75 1011.0
20260506131707 18 225 16.1 27.4 0.00 0.00 0.00 76 1010.9
20260506131202 18 168 4.8 11.3 0.00 0.00 0.00 78 1010.8
20260506130659 18 158 9.7 20.9 0.00 0.00 0.00 78 1011.0
20260506130157 17 205 11.3 22.5 0.00 0.00 0.00 78 1011.0
20260506125655 17 140 9.7 25.7 0.00 0.00 0.00 79 1010.7
20260506125152 17 195 6.4 17.7 0.00 0.00 0.00 80 1010.9
20260506124650 17 191 8.0 16.1 0.00 0.00 0.00 81 1010.8
20260506124148 17 206 4.8 12.9 0.00 0.00 0.00 82 1010.7
20260506123645 16 134 8.0 14.5 0.00 0.00 0.00 82 1010.8
20260506123143 16 177 9.7 24.1 0.00 0.00 0.00 83 1010.9
20260506122640 16 226 9.7 24.1 0.00 0.00 0.00 83 1010.9
20260506122138 16 237 4.8 24.1 0.00 0.00 0.00 84 1010.9
20260506121635 16 247 3.2 19.3 0.00 0.00 0.00 84 1011.0
20260506121131 16 286 6.4 20.9 0.00 0.00 0.00 84 1011.1
20260506120629 16 256 14.5 30.6 0.00 0.00 0.00 83 1011.3
20260506120126 16 223 8.0 20.9 0.00 0.00 0.00 84 1011.3
20260506115625 15 227 17.7 32.2 0.00 0.00 0.00 84 1011.4
20260506115123 15 214 12.9 24.1 0.00 0.00 0.00 84 1011.3
20260506114620 15 225 8.0 24.1 0.00 0.00 0.00 84 1011.4
20260506114118 15 130 3.2 12.9 0.00 0.00 0.00 85 1011.2
20260506113616 15 162 0.0 16.1 0.00 0.00 0.00 85 1011.3
20260506113113 15 216 9.7 20.9 0.00 0.00 0.00 85 1011.4
20260506112609 15 182 4.8 17.7 0.00 0.00 0.00 85 1011.4
20260506112107 15 255 8.0 12.9 0.00 0.00 0.00 86 1011.4
20260506111604 15 215 4.8 19.3 0.00 0.00 0.00 86 1011.3
20260506111101 15 208 30.6 30.6 0.00 0.00 0.00 86 1011.3
20260506110559 15 180 1.6 17.7 0.00 0.00 0.00 86 1011.3
20260506110056 15 197 4.8 9.7 0.00 0.00 0.00 86 1011.6
20260506105552 15 185 4.8 20.9 0.00 0.00 0.00 86 1011.5
20260506105050 15 257 9.7 20.9 0.00 0.00 0.00 86 1011.3
20260506104548 15 187 6.4 27.4 0.00 0.00 0.00 86 1011.4
20260506104045 15 230 6.4 9.7 0.00 0.00 0.00 86 1011.5
20260506103542 15 197 6.4 17.7 0.00 0.00 0.00 86 1011.2
20260506103038 15 147 3.2 19.3 0.00 0.00 0.00 86 1011.2
20260506102537 15 209 6.4 19.3 0.00 0.00 0.00 86 1011.3
20260506102034 15 208 9.7 9.7 0.00 0.00 0.00 86 1011.3
20260506101531 15 228 6.4 27.4 0.00 0.00 0.00 86 1011.0
20260506101028 15 220 9.7 12.9 0.00 0.00 0.00 86 1011.0
20260506100526 15 227 9.7 20.9 0.00 0.00 0.00 86 1011.1
20260506100024 15 139 3.2 17.7 0.00 0.00 0.00 86 1011.1
20260506095523 15 219 4.8 12.9 0.00 0.00 0.00 87 1011.0
20260506095018 15 247 4.8 14.5 0.00 0.00 0.00 87 1011.2
20260506094516 15 201 6.4 14.5 0.00 0.00 0.00 87 1011.1
20260506094014 15 221 6.4 14.5 0.00 0.00 0.00 87 1011.1
20260506093512 15 236 8.0 32.2 0.00 0.00 0.00 86 1010.9
20260506093009 15 220 4.8 30.6 0.00 0.00 0.00 86 1011.0
20260506092507 15 199 4.8 17.7 0.00 0.00 0.00 86 1011.1
20260506092003 15 180 4.8 12.9 0.00 0.00 0.00 86 1011.2
20260506091502 15 223 11.3 14.5 0.00 0.00 0.00 86 1011.2
20260506090958 15 12 4.8 19.3 0.00 0.00 0.00 86 1011.2
20260506090456 15 211 8.0 24.1 0.00 0.00 0.00 86 1011.2
20260506085952 15 270 6.4 17.7 0.00 0.00 0.00 86 1011.4
20260506085449 15 238 17.7 24.1 0.00 0.00 0.00 86 1011.2
20260506084946 15 214 6.4 25.7 0.00 0.00 0.00 86 1011.4
20260506084443 15 237 11.3 17.7 0.00 0.00 0.00 86 1011.2
20260506083939 15 226 6.4 22.5 0.00 0.00 0.00 86 1011.2
20260506083436 15 211 4.8 12.9 0.00 0.00 0.00 86 1011.3
20260506082933 15 229 3.2 14.5 0.00 0.00 0.00 86 1011.2
20260506082430 15 233 11.3 22.5 0.00 0.00 0.00 86 1011.2